• Currently

    Reported at Lexington, Jim Kelly Field Airport, NE
    10:35 AM CST MON APR 24 2017
  • 61°F16°C
  • Partly Cloudy
    Partly Cloudy
  • Feels Like:61°F16°CDew Point:39°F4°CHumidity:45% Winds:NW 5 mph 8 kph Pressure:29.53 in1000 hPaVisibility:10.00 miles16090.00 meters
Time Weather Temp Dew Point
Humidity Winds Visibility Pressure Precipitation
1 hr 24 hr
Monday, April 24
11:55 11:55 Sunny Sunny 62°F16°C 39°F4°C 43% W 8 mphW 13 kph 10.0 miles16.1 km 29.56 in1001 hPa 0.00 in0.00 mm --
11:35 11:35 Partly Cloudy Partly Cloudy 61°F16°C 40°F4°C 46% WNW 5 mphWNW 7 kph 10.0 miles16.1 km 29.53 in1000 hPa 0.00 in0.00 mm --
11:15 11:15 Partly Cloudy Partly Cloudy 58°F14°C 38°F3°C 48% ENE 5 mphENE 7 kph 10.0 miles16.1 km 29.5 in999 hPa 0.00 in0.00 mm --
10:55 10:55 Sunny Sunny 58°F14°C 38°F3°C 48% WSW 7 mphWSW 11 kph 10.0 miles16.1 km 29.56 in1001 hPa 0.00 in0.00 mm --
10:35 10:35 Sunny Sunny 58°F15°C 38°F4°C 48% SW 10 mphSW 17 kph 10.0 miles16.1 km 29.56 in1001 hPa 0.00 in0.00 mm --
10:15 10:15 Sunny Sunny 56°F13°C 38°F3°C 51% SSW 10 mphSSW 17 kph 10.0 miles16.1 km 29.56 in1001 hPa 0.00 in0.00 mm --
09:55 09:55 Sunny Sunny 57°F14°C 38°F3°C 48% SSW 9 mphSSW 15 kph 10.0 miles16.1 km 29.56 in1001 hPa 0.00 in0.00 mm --
09:35 09:35 Sunny Sunny 56°F13°C 37°F3°C 49% SSW 15 mphSSW 24 kph 10.0 miles16.1 km 29.56 in1001 hPa 0.00 in0.00 mm --
09:15 09:15 Sunny Sunny 55°F13°C 37°F3°C 51% S 14 mphS 22 kph 10.0 miles16.1 km 29.56 in1001 hPa 0.00 in0.00 mm --
08:55 08:55 Sunny Sunny 54°F12°C 37°F2°C 52% S 15 mphS 24 kph 10.0 miles16.1 km 29.56 in1001 hPa 0.00 in0.00 mm --
08:35 08:35 Sunny Sunny 53°F12°C 36°F2°C 53% S 17 mphS 28 kph 10.0 miles16.1 km 29.56 in1001 hPa 0.00 in0.00 mm --
08:15 08:15 Sunny Sunny 52°F11°C 36°F2°C 54% S 13 mphS 20 kph 10.0 miles16.1 km 29.56 in1001 hPa 0.00 in0.00 mm --
07:55 07:55 Sunny Sunny 51°F11°C 36°F2°C 56% S 14 mphS 22 kph 10.0 miles16.1 km 29.56 in1001 hPa 0.00 in0.00 mm --
07:35 07:35 Sunny Sunny 51°F10°C 35°F2°C 55% S 12 mphS 19 kph 10.0 miles16.1 km 29.59 in1002 hPa 0.00 in0.00 mm --
07:15 07:15 Sunny Sunny 50°F10°C 35°F2°C 57% SSE 10 mphSSE 17 kph 10.0 miles16.1 km 29.56 in1001 hPa 0.00 in0.00 mm --
06:55 06:55 Sunny Sunny 50°F10°C 34°F1°C 55% SSE 14 mphSSE 22 kph 10.0 miles16.1 km 29.56 in1001 hPa 0.00 in0.00 mm --
06:35 06:35 Clear Clear 50°F10°C 34°F1°C 55% SSE 15 mphSSE 24 kph 10.0 miles16.1 km 29.56 in1001 hPa 0.00 in0.00 mm --
06:15 06:15 Clear Clear 50°F10°C 34°F1°C 54% SSE 17 mphSSE 28 kph 10.0 miles16.1 km 29.56 in1001 hPa 0.00 in0.00 mm --
05:55 05:55 Clear Clear 51°F11°C 34°F1°C 53% SSE 18 mphSSE 30 kph 10.0 miles16.1 km 29.56 in1001 hPa 0.00 in0.00 mm --
05:35 05:35 Clear Clear 51°F11°C 34°F1°C 53% SE 10 mphSE 17 kph 10.0 miles16.1 km 29.59 in1002 hPa 0.00 in0.00 mm --
05:15 05:15 Clear Clear 52°F11°C 34°F1°C 52% S 24 mphS 39 kph 10.0 miles16.1 km 29.59 in1002 hPa 0.00 in0.00 mm --
04:55 04:55 Clear Clear 52°F11°C 35°F2°C 52% S 21 mphS 33 kph 10.0 miles16.1 km 29.59 in1002 hPa 0.00 in0.00 mm --
04:35 04:35 Clear Clear 52°F11°C 35°F2°C 51% S 22 mphS 35 kph 10.0 miles16.1 km 29.62 in1003 hPa 0.00 in0.00 mm --
04:15 04:15 Clear Clear 53°F12°C 35°F2°C 51% S 20 mphS 31 kph 10.0 miles16.1 km 29.62 in1003 hPa 0.00 in0.00 mm --
03:55 03:55 Clear Clear 53°F12°C 34°F1°C 50% SSE 18 mphSSE 30 kph 10.0 miles16.1 km 29.62 in1003 hPa 0.00 in0.00 mm --
03:35 03:35 Clear Clear 52°F11°C 34°F1°C 51% SSE 22 mphSSE 35 kph 10.0 miles16.1 km 29.62 in1003 hPa 0.00 in0.00 mm --
03:15 03:15 Clear Clear 53°F12°C 34°F1°C 49% SSE 23 mphSSE 37 kph 10.0 miles16.1 km 29.62 in1003 hPa 0.00 in0.00 mm --
02:55 02:55 Clear Clear 53°F12°C 34°F1°C 49% SSE 23 mphSSE 37 kph 10.0 miles16.1 km 29.65 in1004 hPa 0.00 in0.00 mm --
02:35 02:35 Clear Clear 53°F12°C 34°F1°C 48% SSE 24 mphSSE 39 kph 10.0 miles16.1 km 29.65 in1004 hPa 0.00 in0.00 mm --
02:15 02:15 Clear Clear 53°F12°C 34°F1°C 48% SSE 23 mphSSE 37 kph 10.0 miles16.1 km 29.68 in1005 hPa 0.00 in0.00 mm --
01:55 01:55 Clear Clear 54°F12°C 34°F1°C 48% S 21 mphS 33 kph 10.0 miles16.1 km 29.71 in1006 hPa 0.00 in0.00 mm --
01:35 01:35 Clear Clear 54°F12°C 35°F1°C 48% S 21 mphS 33 kph 10.0 miles16.1 km 29.71 in1006 hPa 0.00 in0.00 mm --
01:15 01:15 Clear Clear 54°F12°C 35°F2°C 49% S 21 mphS 33 kph 10.0 miles16.1 km 29.71 in1006 hPa 0.00 in0.00 mm --
00:55 00:55 Clear Clear 54°F12°C 35°F2°C 49% S 21 mphS 33 kph 10.0 miles16.1 km 29.74 in1007 hPa 0.00 in0.00 mm --
00:35 00:35 Clear Clear 54°F12°C 35°F2°C 48% SSE 17 mphSSE 28 kph 10.0 miles16.1 km 29.74 in1007 hPa 0.00 in0.00 mm --
00:15 00:15 Clear Clear 54°F12°C 35°F1°C 47% SSE 16 mphSSE 26 kph 10.0 miles16.1 km 29.74 in1007 hPa 0.00 in0.00 mm --